Location: Oshawa
(43.9000°N, 78.8670°W)
Time: 06:59:13
(UTC-04:00)

Cosmos 1805 Rocket - Visible Passes

Search period start: 18 October 2017 00:00
Search period end: 28 October 2017 00:00
Orbit: 605 x 631 km, 82.5° (Epoch: 17 October)

Date Brightness Start Highest point End Pass type
(mag) Time Alt. Az. Time Alt. Az. Time Alt. Az.
18 Oct 5.2 18:54:45 10° NE 18:57:07 14° ENE 18:59:29 10° E visible
18 Oct 4.1 20:31:02 10° NNW 20:35:21 57° W 20:39:28 11° S visible
19 Oct 4.6 19:10:50 10° NNE 19:14:26 24° ENE 19:18:01 10° SE visible
19 Oct 5.4 20:48:26 10° NNW 20:52:17 31° W 20:56:10 10° SSW visible
20 Oct 3.9 19:27:28 10° N 19:31:39 42° ENE 19:35:51 10° SSE visible
20 Oct 6.3 21:06:14 10° NW 21:09:09 18° W 21:12:03 10° SW visible
21 Oct 3.4 19:44:22 10° N 19:48:46 80° E 19:53:12 10° S visible
22 Oct 4.3 20:01:30 10° NNW 20:05:48 55° W 20:10:07 10° S visible
23 Oct 4.6 18:41:15 10° NNE 18:44:54 25° ENE 18:48:33 10° SE visible
23 Oct 5.5 20:18:54 10° NNW 20:22:44 30° W 20:26:35 10° SSW visible
24 Oct 3.9 18:57:53 10° N 19:02:07 44° ENE 19:06:20 10° SSE visible
24 Oct 6.5 20:36:43 10° NW 20:39:36 17° W 20:42:28 10° SW visible
25 Oct 3.5 19:14:48 10° N 19:19:14 82° E 19:23:40 10° S visible
26 Oct 4.4 19:31:57 10° NNW 19:36:16 54° W 19:40:35 10° S visible
27 Oct 5.7 19:49:21 10° NNW 19:53:12 29° W 19:57:02 10° SSW visible
